Kahului, HI

2:34 PM HST on October 20, 2017 (GMT -1000)
Kahului

Weather History for PHOG - July, 2012

Change the Weather History Date:

Tuesday, July 17, 2012

  Actual Average Record
Temperature  
Mean Temperature 79 °F 79 °F  
Max Temperature 84 °F 87 °F 93 °F (1951)
Min Temperature 73 °F 71 °F 63 °F (1971)
Degree Days  
Heating Degree Days 0 0  
Month to date heating degree days 0 0  
Since 1 June heating degree days 0 0  
Since 1 July heating degree days 0 0  
Cooling Degree Days 14 14  
Month to date cooling degree days 225 238  
Year to date cooling degree days 1922 1885  
Since 1 June cooling degree days 597 626  
Growing Degree Days 28 (Base 50)    
Moisture  
Dew Point 67 °F    
Average Humidity 69    
Maximum Humidity 79    
Minimum Humidity 58    
Precipitation  
Precipitation T in 0.02 in 0.24 in (1954)
Month to date precipitation 0.09 0.24  
Year to date precipitation 4.11 9.94  
Snow  
Snow 0.00 in - - ()
Month to date snowfall 0.0  
Since 1 June snowfall 0.0  
Since 1 July snowfall 0.0  
Snow Depth 0.00 in    
Sea Level Pressure  
Sea Level Pressure 30.01 in    
Wind  
Wind Speed 19 mph (NE)    
Max Wind Speed 32 mph    
Max Gust Speed 37 mph    
Visibility 10 miles    
Events Rain    
T = Trace of Precipitation, MM = Missing Value Source: NWS Daily Summary

Daily Weather History Graph

Daily Weather History Graph

Search for Another Location

Airport or City:

Trip Planner

Search our weather history database for the weather conditions in past years. The results will help you decide how hot, cold, wet, or windy it might be!

Date:

Astronomy

Jul. 17, 2012 Rise Set
Actual Time 5:54 AM HST 7:09 PM HST
Civil Twilight 5:30 AM HST 7:33 PM HST
Nautical Twilight 5:01 AM HST 8:02 PM HST
Astronomical Twilight 4:31 AM HST 8:32 PM HST
Moon 4:40 AM HST (7/17) 6:10 PM HST (7/17)
Length of Visible Light 14h 03m
Length of Day
13h 15m
Waning Crescent, 2% of the Moon is Illuminated
Jul 17
Waning Crescent
Jul 18
New
Jul 25
First Quarter
Aug 1
Full
Aug 9
Last Quarter

Hourly Weather History & Observations

Time (HST) Temp. Heat Index Dew Point Humidity Pressure Visibility Wind Dir Wind Speed Gust Speed Precip Events Conditions
12:54 AM 73.9 °F - 64.0 °F 71% 30.01 in 10.0 mi NE 19.6 mph 27.6 mph N/A   Scattered Clouds
1:54 AM 73.0 °F - 64.9 °F 76% 30.00 in 10.0 mi NE 16.1 mph 23.0 mph N/A   Clear
2:54 AM 73.0 °F - 66.9 °F 81% 30.00 in 10.0 mi NNE 15.0 mph - N/A   Mostly Cloudy
3:54 AM 73.9 °F - 66.9 °F 79% 29.98 in 10.0 mi NE 17.3 mph - 0.00 in   Clear
4:54 AM 73.9 °F - 66.0 °F 76% 29.99 in 10.0 mi NE 19.6 mph 27.6 mph N/A   Partly Cloudy
5:54 AM 73.0 °F - 66.0 °F 79% 29.99 in 10.0 mi NE 17.3 mph 27.6 mph N/A   Mostly Cloudy
6:54 AM 75.0 °F - 64.9 °F 71% 30.01 in 10.0 mi NE 11.5 mph 20.7 mph N/A   Partly Cloudy
7:54 AM 75.9 °F - 64.9 °F 69% 30.02 in 10.0 mi NE 15.0 mph 21.9 mph N/A   Scattered Clouds
8:54 AM 80.1 °F 82.1 °F 66.0 °F 62% 30.03 in 10.0 mi NE 18.4 mph 23.0 mph N/A   Scattered Clouds
9:54 AM 82.0 °F 84.5 °F 66.9 °F 60% 30.03 in 10.0 mi NE 21.9 mph 29.9 mph N/A   Partly Cloudy
10:54 AM 82.0 °F 84.5 °F 66.9 °F 60% 30.02 in 10.0 mi NE 18.4 mph 27.6 mph 0.00 in   Scattered Clouds
11:54 AM 81.0 °F 83.8 °F 68.0 °F 65% 30.02 in 10.0 mi NE 24.2 mph 33.4 mph N/A   Scattered Clouds
12:54 PM 82.0 °F 85.5 °F 69.1 °F 65% 30.01 in 10.0 mi NE 27.6 mph 36.8 mph N/A   Scattered Clouds
1:54 PM 81.0 °F 84.1 °F 69.1 °F 67% 29.99 in 10.0 mi NE 25.3 mph 32.2 mph N/A   Scattered Clouds
2:54 PM 82.0 °F 85.5 °F 69.1 °F 65% 29.99 in 10.0 mi NE 23.0 mph 29.9 mph N/A   Scattered Clouds
3:54 PM 82.0 °F 85.5 °F 69.1 °F 65% 29.98 in 10.0 mi NE 20.7 mph 29.9 mph N/A   Scattered Clouds
4:54 PM 78.1 °F - 68.0 °F 71% 29.98 in 10.0 mi NE 19.6 mph 31.1 mph N/A   Scattered Clouds
5:54 PM 78.1 °F - 68.0 °F 71% 29.99 in 10.0 mi NE 16.1 mph 25.3 mph N/A   Scattered Clouds
6:54 PM 75.9 °F - 66.9 °F 74% 30.00 in 10.0 mi ENE 17.3 mph 28.8 mph N/A   Partly Cloudy
7:54 PM 75.0 °F - 66.9 °F 76% 30.02 in 10.0 mi NE 18.4 mph 25.3 mph N/A   Partly Cloudy
8:08 PM 75.2 °F - 66.2 °F 73% 30.01 in 10.0 mi NE 18.4 mph 29.9 mph 0.00 in Rain Light Rain
8:54 PM 75.0 °F - 66.9 °F 76% 30.04 in 10.0 mi NE 17.3 mph 24.2 mph 0.00 in   Clear
9:54 PM 73.9 °F - 66.9 °F 79% 30.05 in 10.0 mi ENE 16.1 mph 26.5 mph 0.00 in   Clear
10:54 PM 75.0 °F - 66.9 °F 76% 30.04 in 10.0 mi NE 18.4 mph 27.6 mph N/A   Clear
11:54 PM 75.0 °F - 66.0 °F 73% 30.04 in 10.0 mi ENE 12.7 mph - N/A   Mostly Cloudy